Location: Ailingen
(47.6833°N, 9.5000°E)
Time: 05:56:39
(UTC+00:00)

SJ-7 - Pass Details

Date: 18 November 2025
Orbit: 500 x 523 km, 97.7° (Epoch: 04 December)

Event Time Altitude Azimuth Distance (km) Brightness Sun altitude
Rises 17:28:01 0° 158° (SSE) 2,584 7.6 -17.6°
Reaches altitude 10° 17:30:05 10° 155° (SSE) 1,704 6.7 -18.0°
Maximum altitude 17:33:43 65° 74° (ENE) 557 4.0 -18.6°
Drops below altitude 10° 17:37:23 10° 352° (N) 1,720 6.8 -19.2°
Sets 17:39:29 0° 350° (N) 2,610 7.8 -19.5°
